[[{"header":{"parameterUnit":"m.s-1","parameterCategory":1,"la1":30.2991,"la2":30.254,"lo1":-89.0895,"lo2":-89.0444,"dy":0.0017,"dx":0.0017,"nx":28,"ny":28,"refTime":"2025-04-16T09:00:00:Z","depth":0,"parameterNumber":2,"parameterNumberName":"U-component_of_WINDS"},"data":[0,0,0,0,0,0,0,0,0,0,0,0,0,0,0,0,0,0,0,0,0,0,0,0,0,0,0,0,0,0,0,0,0,0,0,0,0,0,0,0,0,0,0,0,0,0,0,0,0,0,0,0,0,0,0,0,0,0,-0.0046,-0.0046,0,-0.0084,-0.0084,-0.0084,-0.0109,-0.0109,-0.011,-0.011,-0.0149,-0.015,-0.0151,0,0,0,0,0,0,0,0,0,0,0,0,0,0.0002,0.0002,-0.0046,-0.0046,-0.0047,-0.0083,-0.0084,-0.0085,-0.0109,-0.0109,-0.011,-0.011,-0.0149,-0.015,-0.0151,0,0,0,0,0,0,0,0,0,0,0,0,0,-0.0025,0.0001,-0.0046,-0.0064,-0.0066,-0.0083,-0.0084,-0.0085,-0.0109,-0.0109,-0.011,-0.011,-0.0149,-0.015,-0.0151,-0.0155,0,0,-0.0156,-0.0156,0,0,0,0,0,0,0,0,-0.0024,-0.0027,-0.0061,-0.0062,-0.0065,-0.0092,-0.0082,-0.0108,-0.0109,-0.0093,-0.011,-0.011,-0.013,-0.0133,-0.014,-0.0157,-0.0159,-0.0156,-0.0157,-0.0157,-0.0158,0,0,0,0,0,0,0,-0.0022,-0.0025,-0.0061,-0.0061,-0.0063,-0.007,-0.0075,-0.0087,-0.011,-0.0094,-0.0096,-0.01,-0.0131,-0.0138,-0.0141,-0.0159,-0.0156,-0.0157,-0.0158,-0.0158,-0.0183,-0.0183,0,0,0,0,0,0,-0.0017,-0.0024,-0.006,-0.0062,-0.0044,-0.0071,-0.0076,-0.0083,-0.011,-0.0114,-0.01,-0.0101,-0.0136,-0.0139,-0.0142,-0.0149,-0.0157,-0.0158,-0.0159,-0.0183,-0.0183,-0.0183,0,0,0,0,0,0,-0.0016,-0.002,-0.0058,-0.0043,-0.0049,-0.0072,-0.008,-0.0084,-0.0091,-0.0114,-0.0118,-0.0103,-0.0136,-0.014,-0.0152,-0.0151,-0.0159,-0.016,-0.0183,-0.0183,-0.0183,-0.0163,0,0,0,0,0,0,-0.0014,-0.0019,-0.002,-0.0043,-0.0049,-0.0066,-0.0079,-0.0084,-0.0093,-0.0095,-0.0118,-0.0122,-0.0137,-0.015,-0.0153,-0.0153,-0.0161,-0.0183,-0.0183,-0.0183,-0.0163,-0.0162,-0.016,0,0,0,0,0,-0.0012,-0.0013,-0.002,-0.0024,-0.0051,-0.0066,-0.007,-0.0087,-0.0092,-0.0094,-0.0109,-0.0121,-0.015,-0.0151,-0.0155,-0.0155,-0.0184,-0.0183,-0.0183,-0.0164,-0.0162,-0.016,0,0,0,0,0,0,0.0011,-0.0016,-0.0024,-0.0032,-0.0047,-0.007,-0.0073,-0.0084,-0.0097,-0.0099,-0.012,-0.0125,-0.0135,-0.0146,-0.0146,-0.0161,-0.0169,-0.0169,-0.0153,-0.0151,-0.0149,-0.0147,-0.0162,0,0,0,0,0,0.0015,0.0006,-0.0018,-0.0022,-0.0029,-0.005,-0.0057,-0.0069,-0.0085,-0.0091,-0.0107,-0.0123,-0.0136,-0.0144,-0.0157,-0.0165,-0.0171,-0.0167,-0.0166,-0.0164,-0.0165,-0.0171,-0.017,-0.0182,-0.0182,-0.0182,0,0,0.0024,0.0008,0.0003,-0.0018,-0.0031,-0.0041,-0.0055,-0.0065,-0.0073,-0.0093,-0.0105,-0.0118,-0.0136,-0.0147,-0.0152,-0.0156,-0.0163,-0.0164,-0.0162,-0.0164,-0.0171,-0.017,-0.0169,-0.0181,-0.0181,-0.0181,0,0,0.0034,0.0021,0.0015,0.0003,-0.0016,-0.003,-0.0031,-0.0054,-0.0063,-0.0075,-0.0091,-0.0101,-0.0123,-0.0136,-0.0145,-0.0141,-0.0153,-0.0145,-0.0137,-0.0143,-0.0142,-0.0141,-0.0141,-0.014,-0.0145,-0.0145,-0.0145,0,0.0047,0.0031,0.0014,0.0004,-0.0005,-0.0024,-0.0031,-0.0042,-0.0065,-0.0071,-0.0076,-0.0104,-0.0118,-0.0132,-0.0131,-0.0138,-0.0141,-0.0143,-0.014,-0.014,-0.014,-0.014,-0.0139,-0.0144,-0.0144,-0.0144,-0.0145,0,0.0048,0.0037,0.0034,0.0013,0.0003,-0.0004,-0.0024,-0.0032,-0.0044,-0.0057,-0.007,-0.0088,-0.0106,-0.011,-0.0121,-0.0126,-0.0128,-0.0136,-0.0145,-0.0137,-0.0138,-0.0138,-0.0143,-0.0143,-0.0143,-0.0144,0,0,0.0072,0.004,0.0039,0.0029,0.0006,-0.0003,-0.0012,-0.0029,-0.0036,-0.0051,-0.006,-0.0079,-0.0087,-0.0098,-0.011,-0.0116,-0.0113,-0.0123,-0.0124,-0.0122,-0.0121,-0.0115,-0.0115,-0.0121,-0.0121,-0.0121,-0.012,0,0.0078,0.0061,0.0044,0.0032,0.0021,0.0003,-0.0006,-0.0021,-0.0034,-0.0046,-0.0061,-0.0074,-0.0083,-0.009,-0.0096,-0.0112,-0.0113,-0.0112,-0.013,-0.0131,-0.0125,-0.0115,-0.0108,-0.0106,-0.012,-0.012,-0.012,0,0.0083,0.0068,0.0056,0.0033,0.0028,0.0021,0.0003,-0.0008,-0.0026,-0.0035,-0.0048,-0.0062,-0.0074,-0.0081,-0.0098,-0.0097,-0.0106,-0.0115,-0.0115,-0.0118,-0.0125,-0.0118,-0.0106,-0.0106,-0.012,-0.012,-0.012,0,0.01,0.0078,0.0067,0.0059,0.0032,0.0027,0.0016,-0.0003,-0.0012,-0.0028,-0.0035,-0.0051,-0.0061,-0.0074,-0.0092,-0.0096,-0.0108,-0.0117,-0.0117,-0.0117,-0.0119,-0.0119,-0.011,-0.0124,-0.0124,-0.0124,-0.0124,0,0.0108,0.0101,0.0074,0.0068,0.0059,0.0039,0.003,0.0017,0.0001,-0.001,-0.0027,-0.0036,-0.006,-0.0072,-0.0087,-0.01,-0.0104,-0.0112,-0.0116,-0.0111,-0.011,-0.0117,-0.0118,-0.0124,-0.0124,-0.0124,-0.0124,0,0.0126,0.0108,0.0095,0.0071,0.0065,0.0059,0.0038,0.003,0.0015,0.0002,-0.0002,-0.0025,-0.004,-0.006,-0.0082,-0.0092,-0.0104,-0.0109,-0.0097,-0.01,-0.01,-0.01,-0.0095,-0.0096,-0.0109,-0.0109,-0.0108,0,0.0133,0.0126,0.0101,0.0094,0.0083,0.007,0.006,0.004,0.003,0.0008,0.0003,-0.0014,-0.0029,-0.0053,-0.0073,-0.009,-0.0096,-0.0094,-0.0099,-0.0094,-0.0097,-0.0097,-0.0098,-0.0092,-0.0092,-0.0092,-0.0092,0,0.0145,0.0136,0.0123,0.0106,0.0095,0.008,0.0065,0.006,0.0036,0.0026,0.001,-0.0002,-0.0025,-0.0042,-0.0062,-0.0075,-0.0087,-0.009,-0.0091,-0.0086,-0.0079,-0.0084,-0.0094,-0.009,-0.009,-0.009,-0.009,-0.009,0.0156,0.015,0.0131,0.0116,0.0103,0.0089,0.008,0.0065,0.0051,0.0031,0.002,0.0004,-0.0016,-0.0044,-0.0056,-0.007,-0.0075,-0.0076,-0.0077,-0.0077,-0.0076,-0.0077,-0.0074,-0.0074,-0.0074,-0.0074,-0.0074,0,0.0167,0.0154,0.0141,0.012,0.0108,0.0098,0.008,0.0071,0.0057,0.004,0.0026,0.0007,-0.001,-0.0031,-0.005,-0.0057,-0.0063,-0.0061,-0.0061,-0.0064,-0.007,-0.0068,-0.0056,-0.0056,-0.0056,-0.0056,-0.0056,-0.0056,0.0171,0.0159,0.0148,0.0129,0.0115,0.01,0.009,0.0077,0.0063,0.0043,0.0029,0.0015,-0.0003,-0.0024,-0.004,-0.0046,-0.0052,-0.0049,-0.0056,-0.0062,-0.0063,-0.0065,-0.0063,-0.005,-0.005,-0.0049,-0.0049,-0.0049]},{"header":{"parameterUnit":"m.s-1","parameterCategory":1,"la1":30.2991,"la2":30.254,"lo1":-89.0895,"lo2":-89.0444,"dy":0.0017,"dx":0.0017,"nx":28,"ny":28,"refTime":"2025-04-16T09:00:00:Z","depth":0,"parameterNumber":3,"parameterNumberName":"V-component_of_WINDS"},"data":[0,0,0,0,0,0,0,0,0,0,0,0,0,0,0,0,0,0,0,0,0,0,0,0,0,0,0,0,0,0,0,0,0,0,0,0,0,0,0,0,0,0,0,0,0,0,0,0,0,0,0,0,0,0,0,0,0,0,6.1966,6.1967,0,6.2057,6.2058,6.2059,6.2005,6.2003,6.2,6.1998,6.2085,6.2089,6.2094,0,0,0,0,0,0,0,0,0,0,0,0,0,6.1738,6.1743,6.1966,6.1967,6.1968,6.2057,6.2058,6.2059,6.2006,6.2003,6.2,6.1997,6.2083,6.2089,6.2094,0,0,0,0,0,0,0,0,0,0,0,0,0,6.1834,6.1744,6.1966,6.1952,6.1952,6.2056,6.2058,6.2059,6.2007,6.2003,6.1999,6.1995,6.2081,6.2088,6.2095,6.2215,0,0,6.2117,6.212,0,0,0,0,0,0,0,0,6.1828,6.1842,6.1953,6.1954,6.1953,6.2016,6.2009,6.2111,6.2008,6.1986,6.1998,6.1993,6.2065,6.2073,6.2098,6.2219,6.2223,6.2117,6.2122,6.2125,6.2127,0,0,0,0,0,0,0,6.1822,6.1838,6.2001,6.1955,6.1955,6.1939,6.1949,6.2028,6.2045,6.1987,6.1984,6.1996,6.2064,6.2091,6.21,6.2224,6.2117,6.2123,6.2128,6.213,6.2445,6.2449,0,0,0,0,0,0,6.1817,6.1833,6.1999,6.2004,6.188,6.1946,6.1957,6.2,6.2044,6.2048,6.1999,6.1993,6.2081,6.2091,6.2102,6.2243,6.2124,6.2131,6.2135,6.2441,6.2446,6.245,0,0,0,0,0,0,6.1812,6.1832,6.1995,6.1918,6.1937,6.1955,6.2003,6.2003,6.2031,6.2053,6.2055,6.2024,6.2079,6.2093,6.2187,6.2246,6.2134,6.2141,6.2436,6.2442,6.2448,6.2528,0,0,0,0,0,0,6.1806,6.1831,6.1879,6.1919,6.1941,6.2081,6.2007,6.2008,6.2044,6.2037,6.2078,6.208,6.2077,6.2177,6.2194,6.2253,6.2146,6.243,6.2439,6.2446,6.252,6.2536,6.255,0,0,0,0,0,6.1798,6.1898,6.1882,6.1902,6.2002,6.2085,6.2097,6.2092,6.2049,6.2096,6.2109,6.2079,6.2237,6.2187,6.2206,6.2268,6.2427,6.2436,6.2445,6.2513,6.2533,6.2549,0,0,0,0,0,0,6.1862,6.1903,6.1886,6.2002,6.204,6.2076,6.2135,6.2114,6.2164,6.2155,6.2145,6.2154,6.2253,6.227,6.2214,6.2385,6.2325,6.2338,6.237,6.2389,6.2403,6.2396,6.2152,0,0,0,0,0,6.189,6.1956,6.1987,6.2086,6.2106,6.2117,6.2153,6.2146,6.2185,6.22,6.2221,6.2258,6.2315,6.2353,6.2407,6.2523,6.2529,6.2574,6.2589,6.2601,6.2612,6.2671,6.2691,6.2481,6.248,6.248,0,0,6.1948,6.1978,6.202,6.21,6.2129,6.2194,6.2131,6.2204,6.2251,6.2211,6.2301,6.2317,6.2357,6.2462,6.2509,6.248,6.2672,6.2613,6.2623,6.2627,6.2683,6.2702,6.272,6.2487,6.2486,6.2485,0,0,6.2086,6.2118,6.2202,6.2232,6.2278,6.2284,6.2304,6.2342,6.2352,6.2443,6.2413,6.2468,6.2568,6.2597,6.2625,6.2771,6.2744,6.2789,6.2866,6.2923,6.294,6.2954,6.3003,6.3022,6.2801,6.2801,6.2801,0,6.2152,6.2252,6.2247,6.2322,6.2356,6.2324,6.2407,6.2436,6.2496,6.2518,6.2485,6.2608,6.2633,6.2742,6.2778,6.2803,6.2822,6.2784,6.2938,6.2953,6.2966,6.3013,6.3032,6.2806,6.2805,6.2805,6.2804,0,6.2328,6.2398,6.246,6.252,6.2561,6.264,6.2644,6.2686,6.2675,6.2683,6.2774,6.2803,6.2861,6.2887,6.2877,6.2994,6.2974,6.294,6.2878,6.2991,6.3035,6.3053,6.2813,6.2811,6.281,6.2808,0,0,6.251,6.2565,6.2588,6.2613,6.266,6.2712,6.2787,6.2846,6.288,6.2922,6.2983,6.3067,6.3035,6.3067,6.3059,6.311,6.322,6.3069,6.3069,6.3094,6.3347,6.3371,6.3392,6.3203,6.3206,6.3209,6.3343,0,6.2649,6.2783,6.278,6.2903,6.2965,6.2934,6.2999,6.3033,6.3043,6.3094,6.3104,6.3163,6.3118,6.3136,6.3185,6.3197,6.327,6.3187,6.3256,6.3259,6.3245,6.3415,6.3441,6.3566,6.336,6.3363,6.3365,0,6.283,6.2878,6.3008,6.3043,6.3068,6.3128,6.3179,6.323,6.3266,6.3269,6.3304,6.3287,6.336,6.3299,6.3397,6.334,6.3368,6.3378,6.3382,6.3387,6.3317,6.3421,6.3606,6.3623,6.3392,6.339,6.3388,0,6.2945,6.3043,6.3133,6.3156,6.3199,6.3241,6.326,6.3293,6.3327,6.3372,6.3393,6.3445,6.3473,6.3512,6.3508,6.3464,6.3607,6.3546,6.3609,6.3609,6.3639,6.3636,6.3827,6.3661,6.3661,6.366,6.366,0,6.31,6.3179,6.3185,6.324,6.3327,6.3321,6.3407,6.3422,6.3451,6.3505,6.3482,6.3533,6.3527,6.3577,6.3575,6.3655,6.3668,6.367,6.3668,6.3671,6.3671,6.3688,6.3678,6.3665,6.3664,6.3663,6.3662,0,6.3243,6.3251,6.3346,6.3379,6.3389,6.3451,6.3478,6.3529,6.3536,6.3605,6.3621,6.3631,6.369,6.3691,6.3757,6.3755,6.3852,6.3842,6.384,6.3837,6.3899,6.3892,6.4106,6.4132,6.3951,6.3953,6.3954,0,6.334,6.3401,6.3441,6.3476,6.3499,6.3557,6.3592,6.3587,6.3624,6.3668,6.3712,6.3769,6.3813,6.3907,6.3919,6.3969,6.3958,6.4029,6.3965,6.3965,6.3955,6.3951,6.3955,6.4041,6.4043,6.4044,6.4046,0,6.3511,6.3511,6.3563,6.3616,6.3658,6.37,6.3737,6.3767,6.3767,6.3808,6.3868,6.3903,6.3971,6.4026,6.4074,6.409,6.4067,6.4066,6.4083,6.4085,6.4081,6.4081,6.3872,6.4061,6.4059,6.4058,6.4057,6.4057,6.3632,6.3683,6.3719,6.3777,6.3805,6.384,6.3888,6.3901,6.3952,6.4008,6.4001,6.4067,6.4098,6.416,6.4182,6.4231,6.4206,6.4231,6.4236,6.4242,6.4247,6.4075,6.424,6.4239,6.4239,6.4239,6.4238,0,6.3799,6.382,6.3873,6.3927,6.3972,6.3948,6.3988,6.4026,6.4085,6.4117,6.4161,6.4228,6.4281,6.4297,6.4347,6.4383,6.4373,6.4396,6.4392,6.4395,6.4269,6.4248,6.4403,6.4403,6.4402,6.4402,6.4402,6.4402,6.389,6.3975,6.3979,6.4076,6.4095,6.4161,6.4185,6.4216,6.4242,6.4318,6.4362,6.4373,6.4397,6.4448,6.4494,6.4497,6.4515,6.4542,6.454,6.4421,6.4405,6.4389,6.4369,6.4547,6.4547,6.4663,6.4664,6.4664]}]]